Wind_Speed
21 20 19 19 20 22 23 24 25 25 26 27 28 28 28 28 28 29 30 30 30 31 31 32 32 32 32 32 31 30 29 28 27 27 27 28 28 28 28 28 28 28 28 28 29 29 30 30 31 31 32 32 33 33 34 34 34 34 35 35 36 36 36 37 37 37 38 38 38 38 39 39 40 40 40 41 41 41 42 42 42 42 42 42 42 42
23 22 21 21 21 23 24 25 26 26 27 28 29 29 29 29 29 30 31 31 31 31 31 31 31 31 32 32 31 30 29 28 28 28 28 28 28 28 28 28 28 28 28 28 29 29 30 30 31 31 32 32 33 33 33 33 34 34 35 35 36 36 36 37 37 37 37 37 37 37 38 39 40 40 40 41 41 41 41 41 42 42 42 42 42 42
22 22 22 23 23 24 25 25 26 27 28 28 29 29 28 28 29 29 29 29 29 29 29 29 29 30 31 31 31 30 29 28 28 27 27 27 28 28 28 28 28 28 28 29 29 29 30 30 31 31 32 32 32 32 32 33 33 34 35 35 36 36 37 37 37 37 37 38 38 38 39 39 40 40 41 41 41 42 42 42 42 43 43 43 43 42
22 22 23 23 23 25 26 26 26 26 27 28 28 28 28 27 28 28 28 28 28 28 28 28 28 29 30 31 31 30 29 28 27 27 27 27 27 27 27 27 28 28 28 29 29 29 30 30 31 31 31 31 31 32 32 33 34 34 35 35 36 36 37 37 37 38 38 39 39 39 40 40 41 41 42 42 42 43 43 43 43 43 44 44 44 43
23 22 22 22 22 24 26 26 25 25 25 26 26 27 27 27 27 27 27 27 27 27 28 28 28 28 29 30 30 29 28 27 26 26 27 27 27 27 27 27 28 28 28 28 29 29 29 30 30 30 30 31 31 32 33 33 34 34 35 35 35 36 36 37 37 38 38 39 39 39 40 40 40 41 41 42 42 42 42 42 43 43 43 44 44 43
24 23 22 22 22 22 23 23 23 23 23 24 25 25 25 26 26 26 26 26 26 26 27 27 27 27 28 29 29 28 26 26 26 26 26 27 27 27 27 27 27 27 28 28 28 28 29 29 29 30 30 31 32 32 33 33 33 34 34 35 35 36 36 36 37 37 37 38 38 39 39 39 40 40 40 41 41 41 41 42 42 42 43 43 43 43
23 23 22 22 22 22 22 21 22 22 22 22 22 23 23 24 25 25 26 26 26 26 26 26 26 26 27 28 28 27 26 26 26 26 26 27 27 27 27 27 27 27 27 27 27 28 28 29 29 30 30 31 31 32 32 33 33 34 34 35 35 36 36 36 37 37 37 38 38 38 38 39 39 39 39 40 40 40 40 41 41 42 42 43 43 43
22 22 22 22 21 21 21 21 22 22 22 21 20 20 21 21 22 23 25 26 26 26 25 25 25 25 26 27 27 26 26 26 26 26 26 26 26 26 26 25 25 25 26 26 27 27 28 29 29 30 30 30 31 31 32 32 33 34 34 35 35 36 36 37 37 37 38 38 38 38 38 38 38 38 39 39 39 39 39 40 40 41 41 42 42 43
23 22 22 22 21 20 20 21 22 22 22 21 20 20 19 19 20 21 22 23 24 24 24 24 24 24 25 25 25 25 26 26 26 26 26 25 25 25 24 24 24 24 25 26 26 27 28 28 29 29 29 30 30 31 31 32 33 34 34 35 36 36 36 37 37 37 37 37 37 37 37 37 38 38 38 38 39 39 39 39 40 40 41 41 42 43
24 23 21 21 22 21 20 20 21 21 21 21 21 20 20 19 19 19 20 21 22 22 22 22 22 23 23 24 24 24 24 24 24 24 24 24 24 24 24 24 24 25 25 26 27 27 28 28 28 28 28 29 29 30 31 32 33 34 34 35 35 36 36 36 36 37 37 37 37 37 37 37 37 37 37 38 38 39 39 39 40 40 41 41 42 42
23 23 22 21 21 22 22 21 20 19 19 19 20 21 21 21 20 19 19 20 21 21 21 21 22 22 21 22 22 22 22 23 23 23 23 23 24 24 25 25 25 25 26 26 27 27 27 27 27 27 28 29 30 31 32 32 33 33 34 34 35 35 36 36 36 37 37 37 37 37 37 37 37 37 37 38 38 38 39 40 40 41 41 42 42 43
21 21 21 21 20 20 21 21 20 18 18 18 17 18 20 22 22 21 19 20 20 20 20 20 21 21 21 21 21 21 21 21 22 23 24 24 25 26 26 25 25 25 25 25 25 25 25 25 25 27 28 29 30 31 31 32 32 33 33 34 35 35 36 36 36 36 37 37 37 37 37 37 38 38 38 39 39 39 39 40 41 41 42 42 43 43
21 19 19 19 19 19 20 20 19 18 18 18 17 17 19 20 21 21 20 21 21 20 19 19 19 20 22 22 22 21 21 21 22 23 24 25 25 25 25 24 24 24 24 24 24 24 24 25 26 27 28 29 29 30 30 31 32 32 33 34 34 35 35 36 36 36 37 37 37 38 38 39 39 39 40 40 40 40 41 41 42 42 42 43 44 44
19 18 18 17 18 19 20 19 18 18 19 20 20 21 20 19 19 19 20 21 21 21 19 18 19 20 21 22 22 21 21 21 22 23 24 24 24 23 23 22 23 23 22 23 24 25 25 25 26 28 29 29 30 30 31 31 31 32 33 33 34 34 35 35 36 37 37 38 38 39 39 39 40 40 41 41 41 41 42 42 42 43 43 43 44 44
18 17 15 15 17 19 19 19 19 20 21 21 21 21 20 19 18 18 18 19 19 19 18 18 19 20 21 21 21 21 21 22 22 23 23 23 23 22 20 20 21 21 22 23 24 26 26 26 27 29 30 30 31 31 30 30 31 32 32 33 34 35 35 36 37 37 38 38 39 39 39 40 40 40 41 41 42 42 43 43 43 43 43 43 44 44
18 16 14 14 16 19 20 20 20 20 21 21 20 19 18 18 18 19 19 18 17 16 15 15 15 17 19 20 20 20 20 21 21 21 21 22 21 20 18 18 20 21 23 24 25 26 27 27 28 29 30 30 30 29 29 30 31 32 33 34 35 36 36 37 37 38 38 39 39 39 40 40 40 41 41 41 42 42 43 43 44 44 44 44 44 45
19 18 17 16 17 19 21 21 21 20 20 19 19 19 19 19 19 19 19 18 16 15 14 13 9 6 10 16 18 17 16 17 18 18 19 20 20 19 18 18 20 22 24 25 26 26 27 27 28 29 29 29 29 28 29 29 31 32 33 34 35 36 37 37 38 38 39 39 39 40 40 41 41 41 42 42 42 43 44 44 44 44 44 45 45 45
19 19 19 18 19 20 21 20 20 20 20 19 19 19 20 20 20 19 19 18 16 15 14 13 10 6 5 9 13 14 13 14 15 16 17 19 20 20 19 19 20 22 24 25 26 27 27 27 28 28 28 28 28 28 29 30 31 32 34 35 35 36 37 37 38 38 39 39 40 40 41 41 41 42 41 42 42 43 44 44 44 44 45 45 45 45
20 21 20 19 20 21 21 22 21 21 20 20 19 19 19 20 20 20 19 19 18 17 16 14 14 14 13 14 16 16 14 15 16 16 17 19 21 21 20 20 20 22 24 26 27 27 27 27 28 28 27 27 27 28 29 30 31 32 33 34 35 36 37 37 38 38 39 39 40 40 41 41 41 42 42 42 42 42 43 44 44 44 44 45 45 45
22 23 22 21 21 21 22 23 23 23 22 21 20 19 19 19 20 20 20 20 19 19 18 17 16 17 18 19 20 20 18 17 16 16 17 19 21 22 21 20 20 22 24 26 27 26 26 27 27 27 27 27 27 28 29 29 30 32 33 34 35 36 37 37 38 38 39 39 40 40 40 40 41 41 42 42 42 42 42 43 43 44 44 44 45 45
24 25 26 25 23 22 23 24 24 24 23 22 20 19 19 19 19 20 20 20 19 19 19 18 19 20 21 21 21 21 19 17 16 15 15 17 20 22 21 20 20 22 24 26 26 25 25 26 26 27 27 26 27 27 28 29 31 32 33 34 35 36 37 37 38 38 38 39 39 39 40 40 40 40 40 41 41 41 42 42 43 43 43 43 43 44
26 27 28 28 27 26 25 25 25 25 23 22 21 20 20 20 19 20 20 20 19 19 19 20 22 23 23 23 22 21 19 17 16 15 14 14 18 22 22 20 20 21 23 24 25 24 24 25 26 26 26 27 27 28 29 30 31 31 32 33 35 36 37 37 37 38 38 38 39 39 39 40 40 40 41 41 41 40 41 42 42 42 42 42 43 43
30 29 29 29 29 29 28 27 26 25 24 24 24 23 22 22 22 21 21 21 20 21 22 23 24 24 23 23 23 22 21 19 18 16 14 10 14 21 21 20 19 20 22 24 24 24 24 24 25 26 27 27 27 28 29 29 30 31 32 33 34 35 36 37 37 37 38 38 38 39 39 40 40 40 40 40 41 41 41 41 41 42 42 42 43 43
33 31 30 30 31 32 31 29 27 26 25 26 26 27 26 26 25 24 23 22 22 21 21 21 21 21 22 22 23 23 22 20 19 17 15 13 15 20 21 19 19 20 23 24 23 23 23 25 26 27 27 27 27 27 28 29 29 30 30 31 33 34 35 36 37 37 38 38 39 39 40 40 40 40 41 41 41 41 41 41 41 41 41 42 42 43
34 34 33 33 34 35 34 32 30 28 28 28 28 28 28 27 26 24 23 22 21 19 18 17 16 17 19 20 21 22 22 20 19 17 15 13 16 19 20 19 18 19 21 23 23 22 23 25 26 27 27 27 27 27 27 28 28 29 29 30 32 33 34 36 36 37 38 39 39 40 40 40 40 40 40 40 40 40 40 40 40 41 41 42 42 43
36 37 37 36 35 35 34 33 31 30 29 29 29 29 29 27 25 23 21 20 19 17 16 14 13 15 19 20 20 21 21 20 19 18 17 14 14 16 19 18 18 18 20 22 22 21 22 24 26 27 27 27 26 26 26 27 27 28 28 29 30 32 34 35 37 38 39 39 40 40 40 40 40 40 40 40 40 40 40 41 41 41 41 41 42 43
35 36 37 37 36 34 34 33 32 30 29 28 28 29 29 27 25 21 20 20 20 19 16 11 9 12 16 18 19 20 21 19 18 18 18 15 13 14 17 18 18 18 19 21 21 21 22 24 25 26 26 27 27 27 26 26 26 26 27 28 29 31 33 36 37 38 39 39 39 39 39 39 39 39 39 39 39 40 40 40 40 40 41 41 41 40
33 35 37 38 37 36 34 34 33 32 31 30 29 29 28 27 24 21 22 24 24 21 18 12 8 8 9 13 18 21 21 19 18 17 16 14 13 14 17 18 17 16 17 19 21 22 22 23 25 25 26 26 26 25 25 24 24 24 26 27 29 31 34 36 37 38 39 39 38 38 38 38 38 38 38 38 38 39 39 40 40 40 40 39 37 37
31 33 35 38 38 38 36 35 35 34 34 33 32 32 31 30 27 25 25 26 25 22 19 16 14 12 11 15 19 20 19 18 18 17 16 14 13 14 17 16 15 14 14 16 20 22 23 23 23 23 23 23 23 23 23 23 24 25 26 28 30 31 33 35 36 37 37 38 38 37 37 38 38 38 38 38 38 38 38 39 39 38 37 36 35 35
30 29 31 33 36 37 38 38 37 36 36 36 36 35 34 33 31 29 27 26 24 21 17 17 16 16 15 14 12 11 13 16 17 16 15 12 12 13 14 14 13 13 13 12 12 13 17 21 21 20 20 21 21 22 23 24 25 26 27 28 29 30 31 33 34 36 36 37 37 37 37 37 36 36 36 37 37 37 38 38 38 36 35 34 33 32
30 28 27 27 29 31 33 35 35 34 34 34 34 35 34 33 31 28 24 22 21 19 17 16 15 16 15 7 3 2 4 12 14 12 12 11 11 12 13 12 13 14 13 11 5 3 9 14 18 20 19 20 21 23 24 25 25 25 26 27 27 28 30 32 33 35 36 36 36 36 35 35 35 35 35 36 36 36 37 37 36 35 33 32 31 30
29 28 27 26 25 24 25 26 27 27 27 28 28 29 29 29 27 25 22 20 19 18 17 16 16 16 15 11 7 5 5 10 12 11 10 10 11 13 14 13 14 15 15 14 11 7 6 6 15 22 22 22 23 23 24 24 24 24 24 25 26 28 30 32 33 34 35 35 34 34 34 33 33 33 34 35 35 35 36 35 35 33 32 31 30 29
27 28 29 28 27 26 25 24 24 24 24 25 25 26 27 27 26 26 25 24 22 21 20 19 17 16 16 16 15 14 15 16 15 13 12 11 11 12 14 14 14 15 16 16 17 16 12 11 16 23 24 24 24 23 23 23 23 23 23 24 26 28 30 32 32 32 33 33 33 33 32 32 32 32 33 33 34 34 34 34 33 32 32 31 30 30
25 26 27 27 28 28 28 28 27 27 27 27 28 28 29 29 29 29 29 28 26 25 25 23 21 19 17 16 16 18 20 20 19 16 14 13 12 12 14 14 15 15 15 16 17 17 17 18 19 20 21 24 25 24 23 22 23 23 23 24 25 27 29 31 31 32 33 33 32 32 31 30 30 31 31 32 32 32 32 32 32 33 32 32 32 32
22 23 24 25 25 26 27 28 29 29 29 29 30 30 31 31 31 31 30 30 29 28 28 27 26 25 22 19 17 18 20 21 20 17 15 15 14 14 14 15 16 16 15 15 15 14 15 18 20 20 19 22 24 25 24 23 22 23 23 24 25 27 29 30 32 33 33 33 32 31 30 29 29 29 30 30 30 31 31 32 33 33 34 34 34 33
20 21 22 23 23 23 24 25 26 27 28 29 30 31 31 31 31 31 31 30 30 29 29 30 30 30 28 26 24 23 24 24 22 19 16 16 16 16 15 16 17 17 15 16 16 15 14 16 20 21 20 18 19 22 24 24 23 23 24 25 26 28 29 31 32 32 33 32 32 31 30 29 29 29 30 30 31 31 32 33 33 33 33 33 33 33
20 21 22 22 21 21 21 22 24 25 25 27 28 30 30 31 31 31 31 31 30 30 30 30 31 32 32 31 30 29 28 27 25 22 20 19 19 19 18 18 18 18 17 17 17 17 16 15 16 18 18 16 15 18 22 24 25 25 26 26 27 28 29 30 31 31 31 31 30 30 30 30 30 30 30 31 31 31 31 31 31 31 31 31 32 32
21 21 22 22 21 20 20 21 22 23 25 26 27 29 30 30 31 31 31 31 31 30 30 30 31 32 32 32 32 31 30 29 27 26 24 23 22 22 21 21 20 20 19 19 19 19 17 12 10 10 10 15 19 21 23 24 25 26 27 28 28 28 28 29 30 30 30 30 31 31 30 30 30 30 30 30 30 29 28 28 28 29 29 29 30 31
21 22 22 22 22 22 22 22 23 24 25 27 27 28 29 29 30 31 31 30 30 30 30 30 30 31 31 31 30 30 29 29 28 28 27 26 25 25 24 23 22 22 22 21 20 20 19 15 12 8 7 12 18 22 24 24 24 25 27 28 28 28 28 28 29 30 30 30 30 30 30 29 29 29 29 29 28 27 27 27 28 28 28 29 29 30
21 22 22 23 23 24 24 24 25 25 25 26 26 26 26 27 27 28 29 29 29 29 29 29 30 30 30 30 30 30 29 29 29 28 27 27 26 26 25 24 24 23 22 22 21 20 20 19 19 18 18 16 17 20 23 24 25 25 26 25 25 27 29 29 30 30 30 30 29 29 29 29 29 29 29 28 27 27 27 27 28 28 29 28 27 28
22 22 23 24 24 25 25 25 24 24 24 24 24 23 24 24 24 24 26 27 27 28 28 29 29 29 30 30 30 31 31 30 29 28 27 26 26 25 25 25 25 24 23 22 22 21 21 21 21 21 21 21 21 22 23 24 25 26 25 24 25 28 30 30 30 30 29 29 29 28 28 29 30 30 30 29 28 28 28 28 28 29 29 28 27 25
23 23 24 24 24 25 25 25 24 24 23 23 23 23 24 24 23 22 22 23 24 26 27 27 27 27 27 29 31 31 31 30 29 27 26 25 24 24 24 25 25 25 24 22 22 22 22 22 22 21 21 21 20 20 21 24 26 26 25 25 27 29 30 30 29 28 28 28 29 29 29 29 30 30 30 29 29 29 29 29 29 29 29 28 27 26
24 25 25 25 25 25 24 24 23 22 22 22 22 23 25 25 24 23 21 21 22 23 24 25 25 24 23 24 25 27 28 28 27 25 24 24 24 23 24 25 26 26 25 23 22 22 22 22 22 22 23 22 21 20 20 23 25 26 26 26 26 25 22 26 28 29 29 29 30 30 29 29 30 30 31 31 30 30 30 30 30 29 29 27 27 27
25 25 25 25 25 24 23 23 22 22 21 21 22 23 24 25 24 23 21 21 22 22 23 23 23 22 21 21 22 23 23 24 23 23 23 23 23 23 23 24 25 26 26 24 22 21 21 22 22 23 23 22 21 21 21 22 24 25 26 27 26 24 22 25 29 31 31 31 31 30 30 30 30 31 32 31 30 29 29 29 28 27 28 27 27 27
25 25 24 24 23 23 22 23 23 22 22 22 22 22 23 24 23 22 21 21 21 21 21 21 19 17 17 19 20 20 20 21 21 21 21 21 21 21 22 23 24 25 26 26 25 23 21 20 21 23 23 22 22 22 22 22 24 25 26 27 26 26 27 29 29 29 30 31 31 31 30 30 31 32 32 31 30 29 28 27 26 26 27 28 27 27
24 24 23 23 23 23 23 23 23 22 21 21 21 21 22 22 22 22 21 21 20 20 21 21 19 16 15 16 18 18 18 18 19 19 19 19 20 20 21 22 23 24 25 26 26 25 24 23 22 22 22 22 22 23 23 23 23 24 26 27 26 26 27 27 27 27 28 29 30 31 32 32 32 32 31 30 30 29 28 27 26 26 27 28 28 28
24 23 23 23 23 23 23 22 22 21 20 20 20 21 21 21 21 21 21 21 20 20 20 20 19 18 18 18 18 17 17 17 18 18 18 18 18 19 20 21 22 23 24 25 25 26 26 26 25 24 22 21 20 22 24 24 24 24 25 26 26 25 25 26 27 27 27 28 30 31 33 32 32 31 30 30 29 29 28 28 27 27 27 27 27 27
22 22 22 22 21 21 20 20 20 19 19 19 19 20 20 20 21 20 20 21 21 20 19 18 18 19 19 20 20 19 18 18 18 18 18 18 18 18 19 20 21 22 22 23 24 24 25 26 26 26 24 22 20 21 23 24 25 25 25 25 24 24 24 25 27 27 27 28 30 31 32 31 30 30 30 29 29 28 28 28 28 27 26 26 26 26
19 19 20 20 19 19 18 18 18 18 18 18 18 19 19 20 20 20 20 20 21 20 19 18 18 18 18 19 20 20 20 19 19 19 19 18 18 18 18 19 19 20 20 21 22 23 24 25 26 27 26 25 23 23 23 24 24 24 24 24 23 23 24 25 26 27 27 28 30 31 31 30 30 30 29 28 27 27 28 28 28 27 26 25 25 25
17 18 18 18 18 18 17 17 17 17 17 18 18 18 18 19 19 19 20 20 20 20 19 19 18 18 18 19 19 19 19 19 19 19 19 19 18 17 17 17 17 17 17 18 18 19 20 20 22 24 24 24 24 24 24 24 24 23 22 22 22 22 23 24 26 27 27 28 29 31 32 31 31 30 28 25 25 26 27 27 27 26 25 25 24 25
17 17 18 18 17 17 18 18 18 18 18 18 18 17 17 17 18 19 19 19 19 19 19 19 19 19 18 19 19 19 19 19 18 18 19 19 18 17 17 17 17 16 14 13 13 12 11 11 13 17 20 21 21 21 22 22 21 20 20 21 22 22 22 24 25 26 27 28 29 30 31 31 31 29 26 24 22 22 22 24 25 26 26 26 26 27
Wind_Direction
250 251 249 245 240 237 236 235 235 236 237 239 240 241 242 243 246 248 250 253 256 258 261 263 265 267 268 268 268 267 267 267 267 267 268 268 269 270 271 272 273 274 275 275 276 276 277 278 278 280 281 282 283 284 285 286 286 287 287 287 287 286 286 286 286 285 285 284 284 283 282 281 281 280 280 280 279 279 279 279 279 279 279 279 279 278
247 248 247 245 242 240 240 240 239 239 241 243 244 245 247 249 251 253 255 256 258 260 262 264 265 267 268 269 268 268 267 266 266 266 267 268 269 270 271 272 273 274 274 275 276 276 277 278 280 281 283 284 285 286 286 286 287 286 286 286 286 286 286 286 285 285 285 284 284 283 283 282 282 282 282 281 281 281 281 281 281 280 280 280 279 279
245 246 244 243 242 241 242 243 243 243 244 246 248 249 251 253 255 256 257 259 260 260 261 263 264 266 267 268 268 268 267 266 265 265 266 267 268 270 271 272 272 273 274 275 276 277 279 280 282 283 284 285 286 286 286 287 286 287 287 287 287 286 286 286 286 285 285 284 284 284 283 283 283 283 282 282 282 281 281 281 281 280 280 279 279 278
244 244 243 243 242 242 243 244 245 246 247 248 249 251 252 254 255 256 258 259 260 261 261 262 263 264 265 267 267 267 266 265 265 265 265 267 268 269 270 271 272 273 275 276 277 279 281 282 283 284 285 285 286 286 287 287 287 287 287 287 287 287 287 287 286 286 285 285 284 284 283 283 282 282 281 281 281 280 280 280 279 279 278 278 277 277
243 242 243 242 242 243 244 245 246 247 248 248 249 251 252 253 254 256 258 259 260 260 261 261 261 262 263 264 265 265 264 264 264 264 265 267 268 269 270 271 273 274 276 277 279 281 282 282 283 284 285 286 287 287 287 287 288 288 287 288 287 287 287 287 286 286 285 285 284 284 283 283 282 282 281 281 280 280 280 279 278 278 277 277 276 276
244 242 243 242 242 243 245 245 245 245 245 246 247 249 250 251 253 255 256 257 258 259 260 260 260 260 261 262 263 263 263 263 263 264 265 267 268 269 271 272 274 275 277 278 280 281 281 282 283 284 286 287 287 288 288 288 288 288 288 288 288 288 287 287 287 286 286 286 285 285 284 283 283 282 282 281 281 280 280 279 278 278 277 276 276 275
246 244 242 242 243 244 244 244 243 242 242 243 245 247 249 251 253 254 255 256 257 258 259 260 260 260 259 260 260 261 261 261 262 263 264 266 268 269 271 272 274 275 277 278 279 280 281 282 284 285 286 287 288 288 289 289 289 289 289 289 289 289 288 288 288 287 287 286 286 285 284 284 283 283 282 281 281 280 280 279 278 277 276 276 275 275
246 244 242 241 242 244 244 243 242 241 240 239 242 245 248 250 252 254 256 257 258 258 258 259 259 258 258 258 258 259 259 260 261 263 264 265 267 268 269 271 273 275 277 278 279 280 282 283 285 286 287 288 288 289 289 289 290 290 290 290 289 289 289 289 288 288 287 287 286 285 285 284 283 283 282 281 281 280 280 279 278 278 277 276 275 275
244 244 242 240 239 241 243 243 242 240 238 237 238 241 245 249 252 254 256 257 256 256 255 255 256 256 257 257 257 257 258 259 261 263 264 266 267 268 269 272 274 276 278 279 280 281 282 284 285 286 287 288 288 289 289 290 290 291 291 290 290 290 289 289 289 288 288 287 286 286 285 284 283 283 282 281 281 280 280 279 279 278 278 277 276 275
240 241 241 241 239 238 240 243 243 241 238 238 238 240 242 246 250 254 256 256 255 254 253 252 252 254 256 257 256 256 257 259 260 261 263 264 266 268 271 274 276 278 279 280 281 282 283 284 285 286 287 288 289 290 290 291 291 291 291 291 290 290 290 289 289 288 288 287 287 286 285 284 284 283 282 282 281 281 280 279 279 278 278 277 276 275
238 238 239 241 241 240 240 242 243 241 239 239 240 241 242 242 245 249 254 256 256 255 252 250 250 251 254 256 256 256 256 258 260 260 261 263 266 269 273 275 277 278 279 280 281 282 283 284 285 286 288 289 290 290 291 291 291 291 291 291 290 290 290 289 289 288 288 287 287 286 285 284 284 283 282 282 281 280 280 279 278 278 277 276 275 275
235 236 237 238 239 240 240 241 240 239 238 237 239 241 242 240 240 241 246 252 255 255 253 252 250 250 251 253 255 256 256 257 259 261 263 266 268 271 274 275 276 277 278 279 279 280 281 283 285 286 288 289 290 290 291 291 291 291 291 290 290 290 289 289 289 288 288 287 287 286 285 284 283 283 282 281 281 280 279 279 278 277 276 275 275 274
233 233 233 234 235 236 237 237 237 236 234 232 233 236 239 239 238 237 240 246 251 253 253 253 254 254 254 254 254 255 256 257 260 263 266 268 270 272 274 275 276 277 277 278 279 279 281 284 286 287 288 289 290 290 290 290 290 290 290 290 289 289 289 289 289 288 288 287 286 286 285 284 284 283 282 282 281 280 279 279 278 277 276 276 275 274
230 229 229 231 231 232 233 233 232 231 231 231 232 234 237 238 236 234 236 242 247 250 252 254 256 257 257 256 255 255 256 259 262 264 266 268 270 272 273 274 275 276 277 278 279 281 283 286 287 288 288 288 289 289 289 290 290 290 290 290 289 289 289 289 289 288 288 287 287 286 286 285 284 284 283 282 282 281 280 279 278 278 277 277 276 276
225 224 225 228 230 231 230 229 230 231 233 233 233 234 237 237 234 231 233 239 245 249 251 254 257 259 260 258 256 255 256 258 260 263 265 268 270 272 272 273 274 275 277 279 281 283 285 286 287 287 288 288 288 289 289 290 290 290 290 290 289 289 289 289 289 289 289 288 288 287 286 286 285 284 284 283 282 282 281 280 279 279 278 278 277 277
222 221 223 226 229 231 230 229 229 232 234 234 233 232 232 232 231 231 232 237 242 246 249 253 258 261 262 260 258 255 255 255 256 259 263 267 270 271 272 272 274 277 279 280 282 283 285 286 287 287 287 288 288 289 289 289 289 289 289 289 289 289 289 290 289 289 289 288 288 287 287 286 285 285 284 284 283 283 282 281 280 280 279 279 278 278
223 223 226 227 230 231 231 229 229 231 233 233 232 231 229 229 229 230 232 235 239 243 244 246 250 260 264 264 260 255 252 251 253 257 262 266 270 272 273 274 276 279 280 281 282 283 285 286 286 286 287 287 288 288 288 289 289 289 289 289 289 289 289 289 289 289 289 288 288 287 287 286 286 285 284 284 284 283 282 282 281 280 279 279 278 278
223 223 225 227 230 231 230 228 228 230 231 231 231 231 231 230 230 230 232 234 236 238 240 242 244 247 256 263 260 255 251 252 255 259 264 268 271 274 275 275 276 277 279 280 281 283 285 285 285 285 286 286 287 287 288 288 288 288 288 289 289 289 289 289 289 289 289 288 288 288 287 287 286 285 284 284 283 282 282 281 281 280 280 279 278 278
225 225 224 226 229 230 229 229 229 229 230 230 230 230 230 230 230 230 231 232 233 235 237 240 243 247 252 256 257 258 258 260 262 264 266 270 273 276 277 276 275 276 278 279 281 283 284 284 284 284 285 285 286 286 287 287 287 288 288 288 288 288 289 289 289 289 289 289 288 288 287 287 286 285 285 284 283 282 282 282 282 281 280 280 279 278
228 228 226 226 227 229 230 230 229 229 228 228 228 227 227 228 228 229 229 231 232 233 235 238 242 246 250 254 257 259 261 261 261 262 266 271 274 276 276 275 275 276 278 279 281 283 284 284 284 285 285 285 285 286 286 286 286 287 287 288 288 288 289 289 289 289 289 289 289 289 288 287 287 286 285 285 284 284 283 283 282 281 280 279 278 277
227 228 229 226 225 227 231 231 229 228 228 226 224 223 224 226 228 228 228 229 230 232 235 238 241 244 247 251 255 258 261 260 258 261 267 271 273 274 275 275 276 277 278 280 282 284 284 284 284 285 285 285 286 286 286 286 286 287 287 288 288 288 289 289 290 290 290 290 290 289 289 288 287 287 286 286 285 285 284 283 283 282 281 281 280 279
225 229 228 226 225 226 229 230 230 229 226 222 220 221 223 225 227 227 227 227 228 230 232 236 240 244 246 249 253 257 261 260 257 259 265 270 271 272 275 276 277 278 278 280 283 284 285 285 285 285 285 285 285 286 286 286 286 286 287 287 288 288 289 289 290 290 290 290 290 290 289 289 288 288 287 287 287 287 287 287 287 287 286 286 285 284
223 226 226 224 223 225 227 229 229 228 225 221 219 220 222 224 225 226 226 226 227 230 234 238 242 245 247 250 254 258 261 261 258 256 259 262 269 272 275 277 278 277 277 280 283 286 286 286 285 286 286 286 285 285 285 285 285 286 286 287 287 288 289 289 290 290 290 290 290 290 290 289 289 289 289 289 289 289 289 289 289 288 288 287 286 285
221 222 222 222 223 224 225 226 227 227 225 223 223 224 225 227 229 230 230 230 230 232 235 239 243 247 249 253 257 261 262 261 256 251 250 256 265 271 274 276 276 276 277 280 283 286 287 287 287 287 287 286 285 285 285 285 285 285 286 286 287 288 289 289 290 290 290 290 291 291 291 291 291 290 290 290 290 290 289 289 288 287 286 285 284 283
218 219 221 222 222 223 223 224 226 226 226 225 225 226 228 230 232 233 234 233 232 232 235 240 244 248 252 256 259 262 262 260 253 244 240 251 263 268 271 273 274 276 279 282 286 288 288 288 288 288 287 286 286 285 285 285 285 285 286 286 286 287 288 289 290 290 291 291 291 291 291 291 291 291 290 290 290 289 289 288 287 286 286 285 284 284
220 220 221 222 223 223 224 224 226 227 227 227 227 227 227 229 230 231 231 230 230 231 235 239 245 250 254 258 261 263 263 260 251 241 235 244 258 267 269 271 273 276 280 284 287 289 289 289 289 289 288 287 287 286 285 285 285 285 285 285 286 288 289 290 290 291 291 292 292 292 292 292 291 291 290 290 289 289 289 289 288 288 288 287 287 287
225 221 221 223 224 224 224 225 227 228 228 229 228 227 226 226 226 226 228 229 229 230 232 236 243 251 255 259 262 263 263 258 249 241 236 239 251 264 269 273 276 279 282 285 288 289 289 289 289 289 288 288 287 286 285 285 285 285 285 286 287 288 289 290 291 292 292 292 292 292 292 292 292 291 291 290 290 290 291 290 290 290 290 290 289 289
236 227 223 223 224 225 225 226 228 229 229 230 230 227 225 222 221 222 227 229 230 229 230 231 236 244 253 259 262 263 260 253 246 241 239 240 248 261 268 274 277 280 283 287 290 290 288 287 286 287 287 287 287 287 287 286 286 286 287 287 288 288 289 291 292 292 292 292 293 293 293 293 292 292 292 292 292 292 292 292 292 291 291 290 289 288
249 237 228 223 223 224 225 228 229 230 230 231 230 228 225 222 219 220 226 228 226 225 226 229 234 241 251 259 262 261 257 250 247 244 241 241 248 258 266 272 275 278 284 291 294 293 289 286 285 285 286 287 288 289 289 289 289 288 288 288 288 288 289 290 291 292 292 293 293 293 293 294 294 294 293 293 293 293 292 292 292 292 291 290 288 287
255 249 238 228 224 224 226 228 230 230 231 231 231 229 227 225 222 221 223 223 221 219 223 228 233 239 246 254 258 258 253 250 248 244 238 234 243 256 265 270 273 277 285 293 296 294 290 289 287 286 287 289 291 291 292 293 292 290 290 290 289 288 288 290 292 293 293 293 294 294 294 295 295 295 294 294 293 292 292 292 292 292 291 289 288 286
250 251 248 239 231 227 226 226 228 229 230 231 231 231 231 229 228 227 227 226 224 223 225 229 232 234 235 235 233 235 248 251 249 242 232 228 239 255 265 271 275 278 281 283 286 297 293 293 293 292 292 293 293 294 294 294 293 291 290 289 288 288 289 292 293 294 294 294 295 295 295 295 295 295 294 294 293 293 292 292 292 292 290 289 287 285
242 246 248 248 244 238 234 231 230 230 231 232 232 233 235 236 238 241 244 245 242 239 237 237 235 231 225 221 223 234 247 254 252 245 236 235 247 259 267 271 275 278 277 273 270 272 286 292 295 296 296 295 294 294 294 294 293 291 290 290 290 290 292 294 295 295 295 295 296 296 296 296 296 295 295 294 293 293 292 292 292 291 290 287 285 283
237 241 244 248 249 249 247 245 243 241 241 241 242 243 244 246 249 251 253 254 252 248 245 241 236 230 225 226 231 241 250 255 256 253 247 245 252 261 268 269 271 274 276 272 269 269 271 277 288 293 295 295 294 294 294 294 294 293 292 292 291 291 293 295 295 295 295 296 296 297 297 297 296 296 295 294 293 293 292 292 292 290 288 286 284 283
232 236 240 244 247 249 250 251 251 250 250 250 251 251 251 252 252 252 252 251 249 246 243 238 234 231 229 232 240 247 253 256 257 256 251 246 248 258 265 266 267 269 273 273 272 271 272 276 282 289 293 294 294 294 295 295 295 295 294 293 292 292 293 295 296 296 296 297 297 297 298 297 297 296 295 294 293 293 292 292 292 291 289 288 287 287
228 230 234 237 241 244 247 248 250 250 251 251 252 251 251 251 250 249 248 247 245 242 240 237 236 236 235 238 245 252 256 259 261 260 252 243 243 251 258 260 262 265 268 270 272 274 276 278 281 286 290 294 295 295 295 296 297 297 295 294 293 293 294 294 295 296 296 297 297 298 298 298 298 297 295 294 294 293 293 293 293 292 291 290 290 289
223 226 229 231 234 236 239 242 245 246 248 249 249 248 248 247 246 246 245 244 242 241 239 239 239 240 241 243 245 250 255 260 263 261 254 246 244 246 251 257 260 262 264 268 271 274 277 280 283 285 287 290 293 296 297 298 298 298 297 296 296 295 295 295 295 295 296 296 297 298 299 299 298 297 295 294 294 294 295 295 294 293 293 291 290 288
223 226 229 229 229 231 233 236 238 240 241 243 243 243 243 243 243 244 245 246 244 243 241 241 242 243 244 245 247 250 255 260 262 261 256 250 245 243 245 253 258 260 261 265 271 274 277 280 283 285 285 285 289 294 297 300 300 300 298 298 297 296 295 295 295 295 295 296 296 297 299 299 298 297 296 296 296 296 296 295 294 293 292 290 289 287
224 227 229 229 228 227 228 230 232 233 235 236 237 238 239 240 242 244 247 248 248 247 245 244 243 244 245 246 249 252 257 260 262 261 257 253 247 244 245 251 257 259 260 263 267 272 275 277 281 283 283 285 287 290 294 298 299 299 299 298 297 296 295 296 296 296 296 296 297 298 298 298 298 297 296 296 297 296 295 294 294 294 293 292 291 289
223 226 227 227 226 225 225 226 227 229 230 231 233 235 237 240 243 246 248 249 250 250 249 247 245 244 245 247 250 254 257 259 260 260 257 253 249 247 246 250 256 260 261 262 263 266 269 270 272 275 280 286 288 290 292 294 296 297 298 299 299 297 297 297 298 297 297 297 297 298 299 299 298 297 296 296 295 295 295 295 295 296 295 294 293 291
223 225 226 225 224 224 224 225 226 227 228 229 231 233 236 239 242 246 248 249 250 251 250 248 247 246 246 248 251 253 255 257 257 256 255 253 251 250 250 251 255 259 261 262 262 262 263 266 269 272 276 280 285 288 291 292 293 295 298 299 300 299 300 299 299 298 297 297 297 298 299 299 299 298 297 296 295 295 295 295 295 295 295 293 291 290
223 225 226 225 225 224 224 224 224 225 226 227 228 230 233 235 237 240 243 245 247 247 247 246 244 244 246 248 250 252 253 254 254 254 254 254 254 255 255 254 255 257 260 261 261 261 260 263 267 271 273 276 280 284 286 288 291 294 296 296 296 297 299 299 298 297 298 298 298 299 299 300 299 298 297 296 295 294 294 293 292 292 292 290 287 285
222 224 225 225 224 224 224 224 224 224 225 225 225 226 229 231 232 234 236 237 239 240 241 240 240 242 245 248 249 251 252 252 253 254 255 257 259 260 260 260 259 259 258 259 260 260 260 262 265 268 271 274 278 281 283 286 289 292 293 293 295 297 299 298 298 298 298 299 300 300 300 300 299 298 297 297 296 295 294 293 291 291 290 288 286 284
223 224 225 225 224 223 222 221 221 221 221 221 222 225 228 229 229 229 230 231 233 235 236 236 237 239 243 247 250 251 252 252 254 255 257 260 261 263 263 263 262 260 257 256 257 260 261 262 263 265 269 272 275 277 280 284 288 290 291 292 294 297 298 298 299 299 300 300 300 300 300 300 299 299 299 298 298 297 296 295 293 292 291 289 287 286
223 224 225 224 222 221 220 218 217 217 217 217 219 223 227 228 227 226 226 228 230 231 232 233 234 235 238 243 247 250 251 253 254 256 258 260 261 262 263 263 263 262 258 252 252 257 261 263 265 266 269 271 273 274 277 282 286 288 290 291 291 291 289 292 296 298 300 300 300 300 300 300 301 301 301 300 300 299 298 297 295 293 292 292 290 288
223 224 223 221 219 216 214 215 215 215 216 218 220 223 225 225 224 222 222 224 226 227 227 228 228 231 236 241 244 247 250 252 254 255 257 258 259 260 261 261 261 260 258 253 251 252 256 261 265 269 271 272 272 273 275 279 283 286 288 289 290 288 287 289 291 294 296 298 299 300 301 302 303 303 303 302 301 300 298 297 296 296 296 295 293 290
223 222 220 217 215 212 212 212 212 213 215 218 221 223 224 222 221 220 220 222 223 224 225 223 222 225 232 238 242 246 249 253 255 256 257 258 258 258 259 260 260 260 258 255 254 252 252 256 262 268 273 274 274 273 273 276 280 283 286 288 289 289 289 289 290 291 293 295 297 299 302 304 304 304 302 301 301 300 299 298 297 297 297 296 294 292
219 217 215 212 210 208 208 208 208 209 212 216 220 222 222 220 218 218 219 221 222 223 224 223 222 225 232 237 241 244 249 254 257 259 259 259 259 259 260 261 261 261 260 258 257 256 255 257 259 263 267 271 273 274 274 275 276 278 281 284 286 287 288 289 290 291 292 294 296 299 302 304 305 304 302 301 301 300 299 298 298 297 296 295 294 292
210 209 207 205 203 202 202 203 204 206 209 214 218 220 220 218 217 216 218 220 221 222 223 223 225 229 234 239 242 245 249 253 258 260 261 261 261 261 262 263 263 263 263 262 261 260 260 260 260 260 260 262 267 271 273 274 274 274 276 279 282 284 285 287 290 292 294 295 296 298 301 303 303 303 303 302 301 300 299 298 297 296 295 294 293 291
198 197 197 196 195 196 197 199 201 204 208 213 217 219 219 219 217 217 219 220 221 221 223 224 227 231 236 241 244 246 249 253 257 260 261 262 263 264 265 266 266 265 265 264 264 264 265 266 265 263 259 257 258 263 267 270 271 272 273 275 278 281 284 287 290 293 295 296 297 298 300 300 300 300 301 300 299 297 297 297 297 296 295 295 293 293
192 192 192 192 193 196 198 200 202 206 210 214 217 219 220 220 219 219 220 221 221 222 224 226 229 234 239 243 245 247 249 252 256 258 259 261 262 264 266 267 268 267 267 267 268 268 269 271 272 270 266 259 255 256 261 266 270 272 273 275 277 281 284 287 290 293 295 296 298 299 300 300 299 299 298 296 295 294 295 295 296 296 297 296 296 295
196 196 196 197 199 201 204 205 208 211 215 218 220 221 222 221 221 221 221 222 223 225 227 230 233 236 241 245 248 249 250 252 254 256 257 259 261 263 264 266 266 266 267 269 271 272 275 277 280 280 276 268 261 257 258 263 269 274 277 278 281 284 286 289 291 293 295 297 298 299 299 299 299 298 296 294 293 293 294 295 296 296 297 298 298 297
Height
751 751 751 752 752 752 752 752 753 753 753 754 754 755 755 756 756 756 756 756 756 756 756 756 755 755 755 755 755 755 756 756 756 756 756 756 756 756 756 755 755 755 755 754 754 754 753 753 752 752 751 750 750 749 748 748 747 746 745 745 744 743 742 741 740 739 739 738 737 736 735 734 733 732 731 730 729 728 728 727 726 725 724 723 723 722
749 749 750 750 750 750 749 750 751 751 751 751 752 753 753 754 754 754 754 754 754 754 754 753 753 753 752 752 752 753 753 754 754 754 754 754 753 753 753 753 753 752 752 752 751 751 751 750 749 749 748 748 747 746 746 745 744 744 743 742 741 740 739 738 737 736 736 734 734 733 732 731 730 729 728 727 726 725 724 723 722 722 721 720 719 719
747 748 747 748 748 748 747 748 748 749 749 749 750 751 751 751 751 751 751 751 751 751 751 751 751 750 750 750 750 750 751 751 751 751 751 751 751 751 751 750 750 750 750 749 749 748 748 747 747 746 746 745 744 744 743 742 741 741 740 739 738 737 736 735 734 733 732 731 730 729 729 728 726 726 725 724 723 722 721 720 719 719 718 717 716 715
745 745 745 745 746 745 745 746 746 746 747 747 748 749 749 749 749 749 749 749 749 749 749 749 749 748 747 747 747 748 748 749 749 749 749 749 749 748 748 748 748 747 747 747 746 746 745 745 744 744 743 742 742 741 740 739 739 738 737 736 735 734 733 732 731 730 729 728 727 726 725 724 723 722 721 721 720 719 718 717 716 716 715 714 713 712
743 743 743 744 744 743 743 744 744 745 745 746 746 746 747 747 747 747 747 747 747 747 746 746 746 746 745 745 745 745 746 746 746 747 746 746 746 746 746 745 745 745 744 744 744 743 743 742 741 741 740 740 739 738 737 737 736 735 734 733 732 731 730 729 728 727 726 725 724 723 722 721 720 719 718 717 716 715 714 714 713 712 711 710 709 709
740 740 741 741 741 741 741 742 742 743 743 743 744 744 744 744 744 745 745 745 745 744 744 744 743 743 743 742 742 743 743 744 744 744 744 744 744 743 743 743 743 742 742 741 741 741 740 739 739 739 738 737 736 735 735 734 733 732 731 730 729 728 727 726 725 724 723 721 721 719 719 718 716 716 715 714 713 712 711 710 709 709 708 707 706 705
737 738 739 739 739 739 739 739 740 741 741 741 741 742 742 742 742 742 742 742 742 742 742 741 741 740 740 740 740 741 741 741 742 742 742 741 741 741 741 740 740 740 739 739 738 738 737 737 736 736 735 734 734 733 732 731 730 729 728 727 726 725 724 723 721 720 719 718 717 716 715 714 713 712 711 710 709 709 708 707 706 705 704 703 702 701
735 736 736 737 737 737 737 737 738 738 739 739 739 740 740 740 740 740 740 740 740 740 739 739 738 738 737 737 738 738 739 739 739 739 739 738 738 738 738 738 737 737 736 736 736 735 735 734 734 733 732 732 731 730 729 728 727 726 725 724 723 722 721 719 718 717 716 715 714 713 712 711 710 709 708 707 706 705 704 703 702 701 700 699 699 698
733 733 734 734 735 735 735 735 735 736 736 737 737 738 738 738 738 738 738 738 737 737 737 736 736 735 735 735 735 736 736 736 736 736 736 735 735 735 735 735 734 734 734 733 733 733 732 732 731 730 730 729 728 727 726 725 724 723 722 721 720 719 718 716 715 714 713 712 711 710 709 707 706 705 704 703 702 701 701 700 699 698 697 696 695 694
730 731 731 731 732 733 733 732 733 733 734 735 735 735 736 736 736 736 736 735 735 734 735 734 733 732 732 732 733 734 734 734 734 734 734 733 733 733 732 732 732 731 731 731 730 730 729 729 728 728 727 726 725 724 724 723 721 720 719 718 717 716 715 714 712 711 710 709 708 707 706 704 703 702 701 700 699 698 697 696 695 694 693 692 691 691
728 728 729 729 730 730 731 730 731 731 732 733 733 733 733 734 734 734 734 732 732 732 732 731 731 730 730 730 730 731 732 732 731 731 731 731 731 730 730 730 729 729 729 728 728 727 727 726 726 725 724 724 723 722 721 720 719 718 716 715 714 713 712 711 710 708 707 706 705 704 702 701 700 699 698 697 696 695 694 693 692 691 690 689 688 687
725 726 726 727 727 728 728 728 729 730 731 731 731 731 731 730 731 732 731 730 729 729 729 729 729 728 728 728 728 729 729 729 729 729 729 728 728 727 727 727 726 726 726 725 725 724 724 724 723 723 722 721 720 719 718 717 716 715 714 713 711 710 709 708 707 706 704 703 702 701 699 698 697 696 695 693 692 691 690 689 688 687 686 685 684 683
722 723 724 724 724 725 725 726 727 727 728 728 728 727 727 727 728 729 729 728 727 727 727 727 726 726 725 726 726 727 727 727 727 727 726 725 725 724 724 724 723 723 723 722 722 721 721 721 721 720 719 718 717 717 716 715 713 712 711 710 709 708 706 705 704 703 701 700 699 698 696 695 694 692 691 690 689 688 687 685 684 683 682 681 680 679
719 720 721 721 721 722 722 723 724 724 724 724 723 723 723 724 726 726 726 726 725 724 725 725 724 723 723 723 724 724 725 725 725 724 723 722 722 722 722 721 721 721 721 720 719 719 719 719 718 717 716 716 715 714 713 712 711 710 709 707 706 705 704 703 701 700 699 697 696 695 693 692 691 689 688 687 685 684 683 682 680 679 678 677 676 674
716 717 718 718 718 718 719 720 720 720 719 720 720 721 722 723 724 724 724 723 723 723 723 723 722 721 721 721 721 722 723 723 722 721 720 719 719 719 720 719 719 718 718 718 717 716 717 717 716 714 713 712 712 711 710 709 708 707 706 705 704 702 701 700 699 697 696 695 693 692 690 689 687 686 685 683 682 681 679 678 677 676 674 673 672 671
713 714 714 714 714 715 716 716 717 717 716 717 718 719 720 721 721 721 721 721 721 721 722 721 721 719 718 718 719 720 720 720 719 719 718 716 716 717 718 717 717 716 716 716 715 714 714 714 713 712 711 710 709 709 708 707 706 705 704 702 701 700 699 697 696 695 693 692 690 689 687 686 684 683 681 680 679 677 676 675 673 672 671 669 668 667
710 711 711 711 711 712 712 713 714 714 714 715 716 717 717 718 718 719 719 719 719 720 719 719 719 718 716 715 716 717 718 718 717 716 715 714 714 715 716 716 715 714 713 713 713 712 712 711 710 709 708 708 707 706 706 705 704 703 701 700 699 697 696 695 693 692 691 689 687 686 684 683 681 680 678 677 675 674 672 671 670 668 667 666 664 663
707 707 708 708 708 709 710 711 711 712 712 713 714 714 715 715 716 716 717 717 717 717 717 717 716 715 714 713 713 714 715 716 715 714 713 712 711 712 713 714 713 712 711 710 710 710 710 709 708 707 706 705 705 704 704 703 701 700 699 698 696 695 694 692 691 689 688 686 685 683 681 680 678 676 675 673 672 671 669 667 666 664 663 661 660 659
704 704 705 705 705 706 707 708 708 709 710 710 711 712 712 713 713 714 714 714 714 714 714 714 714 713 712 711 711 712 713 713 713 712 711 710 709 710 711 711 711 710 709 708 707 707 707 706 705 704 704 703 703 702 701 700 699 698 696 695 694 692 691 690 688 687 685 683 682 680 678 677 675 673 671 670 668 667 665 664 662 661 659 658 656 655
700 701 702 702 703 704 704 704 705 705 706 707 708 709 709 710 711 711 711 711 711 712 712 712 711 710 710 709 708 709 711 711 711 710 709 708 707 707 708 709 708 707 706 705 705 705 705 704 703 702 701 701 700 700 699 698 697 695 694 693 691 690 688 687 685 684 682 680 679 677 675 674 672 670 668 666 665 663 661 660 658 657 655 654 652 651
696 697 698 699 701 701 701 701 701 702 703 704 706 706 707 707 708 708 708 708 709 709 709 709 708 707 707 707 706 707 708 709 708 708 707 706 705 704 706 706 706 705 703 702 702 703 702 701 700 699 699 698 698 697 696 695 694 693 692 690 689 687 686 684 683 681 679 678 676 674 672 670 669 667 665 663 661 659 658 656 654 652 651 649 648 646
692 693 694 696 697 697 697 697 698 699 701 702 703 703 704 704 704 704 705 705 706 706 706 706 705 705 705 704 704 705 706 706 706 706 705 704 702 701 703 704 704 702 701 700 700 700 700 699 698 696 696 696 695 694 694 693 691 690 689 688 686 685 683 681 680 678 676 675 673 671 669 667 665 663 661 659 658 656 654 652 650 649 647 645 644 642
687 689 690 692 693 693 694 694 695 697 698 699 699 699 700 700 701 701 701 702 703 703 703 702 702 703 703 702 702 703 704 704 704 704 704 702 700 698 700 701 701 700 698 697 697 697 697 696 695 694 693 693 692 692 691 690 689 688 687 685 684 682 680 679 677 675 673 671 670 668 666 664 662 660 658 656 654 653 651 649 647 646 644 642 640 639
683 684 686 688 689 689 690 691 692 694 695 695 696 696 697 697 698 698 699 699 700 700 701 701 701 701 700 700 700 700 701 701 702 702 701 700 698 697 698 699 699 697 696 695 695 695 694 693 692 691 691 690 689 689 688 687 686 685 684 683 681 679 678 676 674 672 670 668 666 665 663 661 659 657 655 653 651 649 648 646 644 642 640 639 637 635
679 680 682 683 684 685 686 687 689 690 691 692 693 694 694 696 696 697 697 698 698 699 699 699 699 698 698 698 698 697 698 698 699 699 699 697 696 695 695 696 696 695 693 692 693 693 692 690 689 688 688 687 686 686 685 684 683 682 681 680 679 677 675 673 671 669 667 665 663 661 660 658 656 654 652 650 648 646 644 642 640 638 636 635 632 630
675 676 678 679 681 682 683 684 686 687 688 689 690 691 692 694 695 695 696 696 696 697 697 697 696 695 695 695 695 694 695 696 696 696 696 695 694 693 692 693 694 693 691 690 690 690 689 688 686 685 685 684 683 683 682 681 680 679 678 677 676 674 672 670 668 666 664 662 660 659 657 655 653 651 649 647 645 643 641 639 637 635 633 631 629 626
673 674 675 676 678 679 681 682 683 685 686 687 687 688 690 691 692 693 692 692 693 694 694 694 693 692 692 692 691 691 692 693 693 693 693 693 693 691 690 691 691 691 689 688 688 688 687 686 684 683 682 681 680 680 679 678 677 676 676 674 673 671 669 667 665 663 661 659 657 655 653 651 649 648 646 644 642 640 638 636 634 631 629 627 625 623
672 672 672 674 675 677 678 679 681 682 683 684 685 686 687 688 689 688 688 688 689 690 690 690 689 689 689 689 688 688 689 690 690 691 691 691 690 689 688 688 689 689 688 686 685 685 685 684 682 680 679 678 677 677 676 675 675 674 673 672 670 669 667 664 662 660 658 656 654 652 650 648 646 644 643 641 639 637 635 633 631 628 626 624 622 619
670 670 670 671 672 673 675 676 677 679 680 681 682 683 684 684 683 683 682 684 686 686 686 685 686 686 686 686 686 686 686 687 687 688 689 689 688 686 686 687 687 687 686 685 683 682 681 680 679 678 677 676 675 674 673 673 672 671 670 668 667 665 664 661 659 657 655 653 651 649 647 645 644 642 640 638 636 634 632 630 628 626 623 621 619 617
668 668 669 669 669 670 672 673 674 675 676 677 678 679 679 679 678 678 679 680 682 682 682 682 682 682 683 684 684 684 684 684 685 686 686 686 685 684 684 685 685 685 685 685 682 679 677 676 676 676 675 674 673 672 671 670 669 668 666 665 663 662 660 658 656 654 652 650 648 646 644 643 641 639 637 635 633 631 629 627 625 623 620 618 616 614
666 666 667 667 668 669 669 670 671 672 673 674 675 675 676 676 676 676 677 678 678 679 679 679 679 680 681 683 683 682 681 681 682 683 684 684 683 682 683 683 682 683 684 684 683 680 675 672 671 673 673 672 671 669 668 667 666 665 663 661 660 658 656 655 653 651 648 646 645 643 641 640 638 636 634 632 630 627 625 624 622 620 618 615 613 611
664 664 664 665 666 666 667 668 668 669 670 671 672 672 673 673 673 674 674 675 675 676 676 677 677 678 679 680 680 679 678 679 680 681 682 682 681 680 681 681 681 681 681 683 683 681 676 671 668 669 670 670 668 667 666 665 664 662 661 659 657 655 653 652 650 648 645 643 641 640 638 637 635 633 631 629 626 624 622 621 619 618 616 613 611 608
661 662 662 663 663 664 664 665 666 666 667 668 668 669 669 670 670 671 672 672 673 674 674 675 676 677 678 678 678 677 676 677 679 679 680 680 679 678 679 679 679 679 679 680 680 679 677 672 669 667 666 666 666 665 663 662 661 660 659 657 655 652 650 649 647 645 642 640 638 636 635 634 632 630 628 626 623 621 619 618 616 615 613 611 608 605
658 659 660 660 661 661 661 662 663 663 664 665 665 666 666 667 668 669 669 670 671 671 672 673 674 675 675 676 676 675 674 675 676 678 678 678 677 677 677 677 678 678 678 677 677 676 674 672 669 667 664 662 662 662 661 660 659 658 656 655 653 650 648 646 644 642 639 637 636 634 632 630 629 627 625 622 620 618 616 615 613 612 610 608 606 603
655 656 657 658 658 659 659 659 660 660 661 661 662 663 664 664 665 666 667 668 668 669 669 670 671 672 673 673 673 672 672 672 674 675 675 675 675 675 675 675 676 676 676 675 674 673 671 669 668 666 664 660 658 658 658 658 656 655 654 653 651 649 646 644 642 639 637 635 633 631 629 628 626 624 621 619 617 615 614 612 611 609 607 606 604 601
653 653 654 655 655 656 656 656 657 657 658 659 659 660 661 661 662 663 663 664 665 666 666 667 668 669 669 670 670 669 669 669 671 673 673 673 674 674 674 673 673 674 674 673 672 671 669 667 665 664 663 660 656 654 654 654 654 653 652 650 649 647 645 642 640 638 635 633 631 629 627 625 623 621 618 616 614 613 611 610 608 606 604 603 601 599
650 650 651 651 652 653 653 654 654 655 655 656 656 657 658 659 659 660 661 661 662 663 664 664 665 666 666 667 667 667 667 668 669 670 671 671 671 672 671 671 671 671 672 671 670 669 668 666 663 661 660 658 656 653 651 651 651 650 649 648 646 644 642 640 638 636 634 631 629 627 625 623 621 618 616 614 612 610 609 607 605 603 601 599 597 596
646 647 647 648 649 650 650 651 651 652 653 653 654 654 655 656 657 657 658 659 659 660 661 662 662 663 664 664 664 664 665 666 666 667 668 669 669 669 669 669 668 669 669 669 668 667 666 664 662 659 657 655 654 652 651 649 648 647 646 645 644 642 640 638 636 634 632 629 627 625 623 621 619 616 613 611 609 608 606 603 602 600 598 596 594 592
643 644 644 645 646 647 647 648 648 649 650 650 651 652 653 654 655 655 656 656 657 658 659 659 660 660 661 662 662 663 663 664 664 665 666 666 666 667 667 666 666 666 666 666 666 665 664 663 661 658 656 653 651 650 649 649 647 645 643 641 640 638 637 636 634 632 629 627 625 623 620 619 616 614 611 609 607 605 603 601 599 597 595 593 591 588
640 641 641 642 643 643 644 645 645 646 647 648 649 650 651 652 653 653 654 654 655 656 656 657 658 658 659 659 660 660 661 661 662 662 663 663 664 664 664 664 664 663 663 664 663 663 662 660 659 656 655 653 650 648 647 646 645 644 642 639 636 634 634 633 631 629 627 625 623 621 618 616 614 612 609 607 606 604 602 599 597 594 593 591 588 585
637 638 638 639 640 640 641 642 643 644 645 646 647 649 649 650 651 651 651 652 653 654 654 655 656 656 656 657 657 658 658 659 659 660 660 661 661 661 662 661 661 661 661 661 660 660 659 658 656 654 653 651 649 647 645 644 643 642 641 639 635 632 631 630 629 627 625 623 621 619 617 614 611 609 607 605 603 602 600 598 595 592 590 588 586 584
634 635 635 636 637 638 639 640 641 642 644 644 645 646 646 647 648 649 650 650 651 651 652 653 654 654 654 654 655 655 656 656 657 657 658 658 659 659 659 659 659 659 659 658 658 657 656 655 654 652 651 649 648 646 643 641 640 640 639 637 634 631 628 626 626 625 623 621 619 617 615 613 610 607 604 603 601 599 597 595 593 590 588 585 583 581
631 631 632 633 634 635 636 638 639 641 641 642 643 643 644 644 645 646 647 648 648 649 649 650 651 652 653 653 652 653 653 654 654 655 656 656 656 656 656 656 656 656 656 656 655 654 653 652 651 650 648 647 646 644 641 639 638 637 637 636 634 631 628 624 622 621 621 619 617 615 613 611 608 605 602 600 598 596 594 592 590 588 585 583 581 578
627 628 629 631 632 634 635 636 637 638 639 639 640 640 641 642 643 644 645 646 646 646 647 648 649 650 651 651 651 651 651 652 652 653 653 653 653 653 653 653 653 653 653 653 652 651 650 649 648 647 646 646 644 642 640 638 636 635 634 633 632 631 628 624 621 619 618 616 614 613 611 609 606 603 600 598 596 594 592 589 587 584 582 581 578 576
625 626 627 629 630 632 633 634 634 635 636 637 638 638 639 640 641 642 643 644 644 645 646 647 648 649 649 649 649 649 649 649 650 650 650 650 651 651 651 650 650 650 650 650 649 649 648 647 645 644 644 643 642 640 638 636 634 632 631 630 629 628 626 623 621 619 617 614 612 610 609 607 604 601 598 595 593 591 589 587 585 582 580 578 576 573
623 624 625 626 628 629 630 631 632 633 634 635 635 636 637 638 639 640 641 641 642 643 644 645 646 647 646 646 646 646 646 646 646 647 647 647 648 648 648 648 648 648 647 647 646 646 645 644 643 642 641 640 639 637 636 634 633 631 628 627 627 625 623 621 620 618 616 613 611 608 606 605 603 600 596 593 591 589 587 585 583 581 578 575 573 570
620 621 622 624 625 626 627 628 629 631 632 632 633 634 635 636 637 638 639 639 640 641 642 643 644 644 643 643 643 644 644 644 643 644 644 644 645 645 645 645 645 645 645 644 644 643 642 641 641 640 639 638 636 634 632 632 631 629 627 625 624 623 621 619 617 616 614 612 610 607 605 603 601 598 594 591 589 586 584 582 581 579 576 574 571 568
617 618 619 621 622 624 625 626 627 628 629 630 631 632 633 634 635 636 636 637 638 639 640 641 641 641 641 641 641 641 641 641 641 641 641 642 642 643 643 643 643 643 642 642 641 641 640 639 638 637 637 636 634 631 629 628 628 626 625 623 622 621 619 617 615 614 613 611 608 606 605 603 600 597 593 590 587 584 582 580 578 576 574 572 569 566
615 616 617 619 620 621 623 624 625 626 627 628 629 630 631 632 633 634 634 635 636 637 638 638 639 639 639 638 638 639 639 639 638 638 639 639 640 640 641 641 641 641 640 639 639 638 637 636 635 634 633 633 631 629 626 625 624 624 623 621 620 619 617 614 613 612 611 609 606 605 603 601 599 597 594 590 586 582 579 577 575 573 571 569 567 564
614 615 616 617 619 620 621 622 623 624 625 626 628 629 629 630 631 632 632 633 634 635 635 636 636 636 636 636 636 636 636 636 636 636 636 637 637 638 638 639 639 639 638 637 636 635 634 632 631 630 629 629 628 627 624 622 621 621 620 619 618 617 615 613 611 610 609 607 605 603 601 599 597 595 593 590 586 581 578 575 573 570 569 567 565 562
613 614 615 616 617 618 619 620 621 623 624 625 626 627 627 628 629 630 631 632 632 633 633 634 634 634 634 634 634 634 634 634 634 634 634 634 635 636 636 636 636 636 636 635 634 632 631 630 627 625 624 625 625 624 623 621 619 618 617 616 615 615 614 611 610 608 607 606 604 601 599 597 595 593 591 589 585 581 576 573 570 568 566 565 562 559